Terminal Aerodrome Forecast
Issued by NWS

Home | Current Version | Previous Version | Text Only | Print | Product List | Glossary Off
Versions: 1 2 3 4 5 6 7 8 9 10 11 12 13 14 15 16 17 18

069
FTUS43 KBIS 241127
TAFJMS
TAF
KJMS 241127Z 2412/2512 29004KT P6SM SKC
     FM241400 28014G22KT P6SM SCT040
     FM241900 28018G28KT P6SM BKN050
     FM250400 30010KT P6SM SCT025 BKN040=

USA.gov is the U.S. government's official web portal to all federal, state and local government web resources and services.